Regional Weather Roundup
Issued by NWS

Home | Current Version | Previous Version | Graphics & Text | Print | Product List | Glossary On
Versions: 1 2 3 4 5 6 7 8 9 10 11 12 13 14 15 16 17 18 19 20 21 22 23 24 25 26 27 28 29 30 31 32 33 34 35 36 37 38 39 40 41 42 43 44 45 46 47 48 49 50
000
ASUS43 KLMK 271210
RWRKY
KENTUCKY REGIONAL WEATHER ROUNDUP
NATIONAL WEATHER SERVICE LOUISVILLE KY
800 AM EDT MON APR 27 2015

NOTE "FAIR" INDICATES FEW OR NO CLOUDS BELOW 12,000 FEET
WITH NO SIGNIFICANT WEATHER AND/OR OBSTRUCTIONS TO VISIBILITY.

KYZ001>023-026-027-061>063-070>075-271300-
WESTERN AND SOUTH CENTRAL KENTUCKY

CITY           SKY/WX    TMP DP  RH WIND       PRES   REMARKS
PADUCAH        MOCLDY    44  36  73 N6        30.01R
HENDERSON      PTSUNNY   45  30  57 N9        30.02R
OWENSBORO      MOSUNNY   46  34  63 N8        30.01R
HOPKINSVILLE   MOSUNNY   44  39  83 N6        29.97R
BOWLING GREEN  SUNNY     46  36  68 N3        29.99R
GLASGOW        SUNNY     43  38  84 CALM      29.97R
$$

KYZ024-025-028>034-038-045-046-053-271300-
NORTH CENTRAL KENTUCKY

CITY           SKY/WX    TMP DP  RH WIND       PRES   REMARKS
LOUISVILLE/SDF MOSUNNY   46  37  71 W3        29.99R
LOUISVILLE/LOU SUNNY     43  36  76 NW3       30.00R
FORT KNOX      SUNNY     40  36  86 NW2       29.97R
$$

KYZ035>037-039>044-047>052-055>060-089>105-271300-
NORTHEAST KENTUCKY

CITY           SKY/WX    TMP DP  RH WIND       PRES   REMARKS
LEXINGTON      SUNNY     40  36  86 W3        29.97R
COVINGTON      SUNNY     39  36  89 CALM      29.97R
FRANKFORT      SUNNY     38  34  85 NW5       29.96R WCI  34
$$

KYZ054-064>069-076>088-106>120-271300-
SOUTHEAST KENTUCKY

CITY           SKY/WX    TMP DP  RH WIND       PRES   REMARKS
JACKSON        SUNNY     44  32  62 CALM      29.94R
LONDON         SUNNY     43  34  70 CALM      29.95R
SOMERSET       SUNNY     41  36  81 CALM      29.97R
MIDDLESBORO    FOG       37  37 100 CALM      29.95R VSB<1/4
MONTICELLO     SUNNY     39  39 100 CALM      29.99R
$$




USA.gov is the U.S. government's official web portal to all federal, state and local government web resources and services.